User: anonymous   Login
Location: Unspecified
(0.0000°N, 0.0000°E)
Time: 09:14:50
(UTC+00:00)
Language:

OAO 2 - Orbit

View from above orbital plane
View from above orbital plane
View from above satellite
View from above satellite

Ground track
Ground track

The orbit data is extracted from the following two-line orbital elements,

1  3597U 68110A   18109.37950348 +.00000016 +00000-0 +98261-5 0  9996
2  3597 034.9928 123.5820 0005626 176.2919 183.7814 14.45802423601794
Epoch (UTC): 19 April 2018 09:06:29
Eccentricity: 0.0005626
inclination: 34.9928°
perigee height: 735 km
apogee height: 743 km
right ascension of ascending node: 123.5820°
argument of perigee: 176.2919°
revolutions per day: 14.45802423
mean anomaly at epoch: 183.7814°
orbit number at epoch: 60179

The dashed part of the orbit path shows where the satellite is in the earth's shadow,  

DLR